COSMOS 2278

Last updated on Sun Jun 21 2026 00:02:15 GMT+0000 (Coordinated Universal Time)

1 23087U 94023A 26171.35871112 .00000000 00000+0 24726-4 0 9997 2 23087 71.0551 320.2888 0010591 239.7350 120.2725 14.14398795659322
UTC large
Height (km)
Speed (km/s)
/
Latitude / Longitude
Inclination (degrees)
Orbital Period (minutes)
Azimuth
Elevation
Range (km)
Doppler Factor

Next 0 passes for location: London (51.5072 / 0.1276)

No passes found over London.
COSMOS 2278